Skip Navigation Links
NOAA logo - Click to go to the NOAA homepage
NOAA's National Weather Service
Alaska Aviation Weather Unit
  NWS logo - Click to go to the NWS homepage
Left Navbar Graphic     15 AKDT = 23 GMT

   
NOAA is celebrating 200 years of science, service, and stewardship. Visit the NOAA 200th celebration Web site to learn more.
USA.gov is the U.S. Government's official Web portal to all Federal, state and local government Web resources and services.
Facebook
NWS on Facebook

Important Change Regarding the AAWU Web Presence

 

Over the last several months, the AAWU has been working to navigate its webpages to a nationally supported server. Security, as well as other needs, have necessitated the change.  We have been given an extension for the site changeover while we diligently work at addressing feedback received. As of July 14, 2017, aawu.arh.noaa.gov will be discontinued. The new AAWU web address is weather.gov/aawu. It is now live and will run in-parallel with the old site until it is discontinued on July 14, 2017. Please continue to send any feedback or questions regarding the new webpages to nws.ar.aawu.webauthors@noaa.gov.  Thank you for your patience during this time of transition.
AAWU Home :: Display TAF Add Bookmark
TAF PACD 192329Z 2000/2024  29007KT P6SM FEW035 BKN050
     FM200300 11008KT P6SM BKN050
     FM201500 06012KT 6SM -RASN BKN035 OVC050=

8259
FTAK31 PANC 192329
TAFAKN
TAF
METAR PACD 191753Z 31007KT 10SM BKN033 BKN046 02/M02 A2976=

METAR PACD 191853Z 30008KT 10SM FEW042 SCT050 02/M02 A2973=

METAR PACD 191953Z 29004KT 10SM CLR 04/M02 A2972=

METAR PACD 192053Z 30010KT 10SM FEW034 05/M02 A2969=

METAR PACD 192153Z 28004KT 9SM CLR 06/M02 A2967=

METAR PACD 192253Z 36007KT 10SM CLR 05/M02 A2963=


NOAA's National Weather Service
Alaska Aviation Weather Unit
6930 Sand Lake Road
Anchorage, AK 99502-1845
Disclaimer
Credits
Glossary
Privacy Policy
About Us
Career Opportunities
Contact AAWU Internet Services Site last modified: April, 17th 2012